Flag for U.S.A. Weather past 2 weeks in Des Moines, Iowa, U.S.A.

Now
50 °F

Passing clouds.


Feels Like: 47 °F
Forecast: 41 / 77 °F
Wind: 7 mph from Northwest

Location: Des Moines International Airport


UV Index: 5 (Moderate)

Visibility: 10 mi


Pressure: 29.78 "Hg

Humidity: 80%

Dew point: 44 °F

Location of Des MoinesLocation

Historic Weather in Des Moines

°F

Des Moines temperature yesterday

Maximum temperature yesterday: 55 °F (at 12:54 AM)
Minimum temperature yesterday: 47 °F (at 12:54 PM)
Average temperature yesterday: 51 °F

Past Weeks' High & Low Weather Summary

 TemperatureHumidityPressure
High85 °F (Apr 12, 3:54 PM)93% (Apr 13, 10:54 AM)30.37 "Hg (Apr 13, 10:54 AM)
Low26 °F (Apr 15, 3:54 AM)13% (Apr 11, 4:54 PM)29.49 "Hg (Apr 12, 8:54 PM)
Average55 °F53%29.95 "Hg
* Reported Apr 9 8:54 PM — Apr 24 8:54 PM, Des Moines, Weather by CustomWeather, © 2014

Note: Actual official high and low records may vary slightly from our data, if they occured in-between our weather recording intervals... More about our weather records

Advertising

Historic Weather Conditions — Data for Previous 24 hours

 ConditionsComfort  
Time TempWeatherWind HumidityBarometerVisibility
8:54 PM
Apr 24
52 °FPartly sunny.3 mph77%29.76 "Hg10 mi
7:54 PM54 °FPartly sunny.6 mph72%29.73 "Hg10 mi
6:54 PM54 °FMostly cloudy.6 mph74%29.71 "Hg10 mi
5:54 PM53 °FMore clouds than sun.10 mph77%29.69 "Hg10 mi
4:54 PM53 °FLight rain. Cloudy.13 mph80%29.68 "Hg10 mi
3:54 PM54 °FMostly cloudy.17 mph77%29.70 "Hg10 mi
2:54 PM55 °FDrizzle. Mostly cloudy.16 mph83%29.67 "Hg7 mi
1:54 PM54 °FFog.10 mph86%29.65 "Hg6 mi
12:54 PM56 °FMostly cloudy.8 mph90%29.66 "Hg7 mi
11:54 AM56 °FLow clouds.3 mph90%29.65 "Hg7 mi
10:54 AM55 °FLow clouds.3 mph90%29.67 "Hg8 mi
9:54 AM52 °FLight rain. Fog.21 mph93%29.62 "Hg4 mi
8:54 AM52 °FThunderstorms. Mostly cloudy.12 mph80%29.70 "Hg2 mi
7:54 AM52 °FLight rain. Mostly cloudy.13 mph75%29.64 "Hg10 mi
6:54 AM51 °FMostly cloudy.17 mph71%29.64 "Hg10 mi
5:54 AM51 °FOvercast.15 mph71%29.67 "Hg10 mi
4:54 AM50 °FLight rain. Mostly cloudy.15 mph74%29.68 "Hg8 mi
3:54 AM50 °FLight rain. Overcast.15 mph71%29.70 "Hg9 mi
2:54 AM53 °FLight rain. Mostly cloudy.12 mph56%29.73 "Hg10 mi
1:54 AM53 °FOvercast.16 mph59%29.73 "Hg10 mi
12:54 AM52 °FLight rain. Mostly cloudy.13 mph61%29.79 "Hg10 mi
11:54 PM
Apr 23
52 °FPassing clouds.7 mph61%29.80 "Hg10 mi
10:54 PM52 °FMostly cloudy.10 mph59%29.80 "Hg10 mi
Weather by CustomWeather, © 2014

See weather overview